Walla Walla, WA
on Friday, December 28, 2012

Friday
Previous Day Next Day
Daily Summary
 ActualAverage (KPDT)Record (KPDT)
Temperature
Mean Temperature °F 33°F  
Max Temperature 35°F 39°F 64°F (1917)
Min Temperature 26°F 27°F 2°F (1968)
Degree Days
Heating Degree Days 34 32  
Month to date heating degree days 890  
Since 1 July heating degree days 2143  
Cooling Degree Days 0 0  
Month to date cooling degree days 0  
Year to date cooling degree days 636  
Moisture
Dew Point 27°F   
Average Humidity 92    
Maximum Humidity 100    
Minimum Humidity 75    
Precipitation
Precipitation 0.00 in 0.05 in 0.77 in (2010)
Month to date precipitation 1.34  
Year to date precipitation 12.53  
Snow
Snow 0.00 in 0.20 in 3.50 in (1990)
Month to date snowfall 5.4  
Year to date snowfall 14.6  
Since 1 July snowfall 6.9  
Snow Depth in   
Wind
Wind Speed 2 mph   
Max Wind Speed 5 mph   
Max Gust Speed mph   
Visibility 3 miles   
Events Fog   

Key: T is trace of precipitation, MM is missing value
Source: NWS Daily Summary
Time(PST)TemperatureDew PointHumidity Pressure Visibility Wind DirectionWind SpeedGust SpeedPrecipitationEvents Conditions
12:53 AM 35.1°F 28.0°F 76% 30.21 in 10.0 miles Calm Calm - N/A   Overcast
1:53 AM 34.0°F 28.0°F 79% 30.22 in 10.0 miles South 3.5 mph - N/A   Overcast
2:53 AM 34.0°F 27.0°F 75% 30.22 in 10.0 miles Calm Calm - N/A   Mostly Cloudy
4:53 AM 30.0°F 27.0°F 88% 30.22 in 10.0 miles Calm Calm - N/A   Mostly Cloudy
5:53 AM 28.9°F 27.0°F 92% 30.22 in 10.0 miles ESE 4.6 mph - N/A   Scattered Clouds
6:21 AM 28.4°F 26.6°F 93% 30.19 in 1.0 miles WNW 3.5 mph - N/A   Mist
6:25 AM 28.4°F 26.6°F 93% 30.18 in 0.2 miles WNW 3.5 mph - N/A Fog Light Freezing Fog
6:44 AM 26.6°F 26.6°F 100% 30.18 in 0.2 miles NW 3.5 mph - N/A Fog Light Freezing Fog
6:53 AM 27.0°F 26.1°F 96% 30.22 in 0.2 miles Calm Calm - N/A Fog Light Freezing Fog
7:53 AM 26.1°F 25.0°F 96% 30.23 in 0.2 miles South 3.5 mph - N/A Fog Light Freezing Fog
8:53 AM 27.0°F 27.0°F 100% 30.24 in 0.2 miles SSW 3.5 mph - N/A Fog Light Freezing Fog
9:12 AM 26.6°F 26.6°F 100% 30.20 in 0.2 miles WSW 4.6 mph - N/A Fog Light Freezing Fog
9:42 AM 28.4°F 26.6°F 93% 30.20 in 0.2 miles Calm Calm - N/A Fog Light Freezing Fog
9:51 AM 28.4°F 26.6°F 93% 30.21 in 0.2 miles Variable 3.5 mph - N/A Fog Light Freezing Fog
9:53 AM 28.0°F 26.1°F 92% 30.25 in 0.2 miles Calm Calm - N/A Fog Light Freezing Fog
10:05 AM 28.4°F 26.6°F 93% 30.21 in 0.2 miles Calm Calm - N/A Fog Light Freezing Fog
10:53 AM 28.9°F 27.0°F 92% 30.24 in 0.2 miles Calm Calm - N/A Fog Light Freezing Fog
11:53 AM 30.0°F 27.0°F 88% 30.23 in 0.2 miles Calm Calm - N/A Fog Light Freezing Fog
12:50 PM 30.2°F 26.6°F 86% 30.19 in 0.2 miles SSE 3.5 mph - N/A Fog Light Freezing Fog
12:53 PM 30.0°F 27.0°F 88% 30.23 in 0.2 miles Calm Calm - N/A Fog Light Freezing Fog
1:16 PM 30.2°F 28.4°F 93% 30.19 in 0.2 miles Calm Calm - N/A Fog Light Freezing Fog
1:53 PM 30.0°F 27.0°F 88% 30.24 in 0.2 miles Calm Calm - N/A Fog Light Freezing Fog
2:41 PM 30.2°F 28.4°F 93% 30.20 in 0.5 miles ESE 4.6 mph - N/A Fog Light Freezing Fog
2:53 PM 30.9°F 28.0°F 89% 30.24 in 1.5 miles East 4.6 mph - N/A   Overcast
3:42 PM 30.2°F 28.4°F 93% 30.20 in 2.5 miles ENE 3.5 mph - N/A   Overcast
3:53 PM 30.0°F 28.0°F 92% 30.24 in 2.5 miles Calm Calm - N/A   Overcast
4:15 PM 30.2°F 28.4°F 93% 30.20 in 7.0 miles Calm Calm - N/A   Overcast
4:53 PM 32.0°F 28.9°F 88% 30.25 in 8.0 miles Calm Calm - N/A   Overcast
5:53 PM 30.9°F 28.9°F 92% 30.25 in 8.0 miles Variable 3.5 mph - N/A   Overcast
6:53 PM 30.0°F 28.9°F 96% 30.25 in 6.0 miles Calm Calm - N/A   Overcast
7:53 PM 30.0°F 28.9°F 96% 30.26 in 6.0 miles Calm Calm - N/A   Overcast
8:53 PM 30.0°F 28.9°F 96% 30.25 in 7.0 miles Calm Calm - N/A   Overcast
9:53 PM 30.0°F 28.9°F 96% 30.26 in 5.0 miles Calm Calm - N/A   Overcast
10:53 PM 30.0°F 28.0°F 92% 30.27 in 4.0 miles Calm Calm - N/A   Overcast
11:53 PM 28.9°F 28.0°F 96% 30.27 in 4.0 miles Calm Calm - N/A   Overcast
Moon Phase
Dec. 28 Jan. 04 Jan. 11 Jan. 18 Jan. 26
Sunrise:07:35 AM (PST) Moon Rise:04:59 PM (PST)12/28
Sunset:04:15 PM (PST) Moon Set:07:29 AM (PST)12/28

Copyright © 2014 The Weather Underground, Inc.